Regional Weather Roundup
Issued by NWS

Home | Current Version | Previous Version | Text Only | Print | Product List | Glossary Off
Versions: 1 2 3 4 5 6 7 8 9 10 11 12 13 14 15 16 17 18 19 20 21 22 23 24 25 26 27 28 29 30 31 32 33 34 35 36 37 38 39 40 41 42 43 44 45 46 47 48 49 50

000
ASUS43 KDMX 200707
RWRIA

WEATHER ROUNDUP FOR IOWA
NATIONAL WEATHER SERVICE DES MOINES IA
100 AM CST THU NOV 20 2014

NOTE: "FAIR" INDICATES FEW OR NO CLOUDS BELOW 12,000 FEET WITH NO
SIGNIFICANT WEATHER AND/OR OBSTRUCTIONS TO VISIBILITY.

* - THESE STATIONS ARE NOT NWS STATIONS...THUS NOT UNDER NWS
QUALITY CONTROL.  THEY ALSO DO NOT REPORT WEATHER SUCH
AS PRECIPITATION OR FOG.

IAZ001>003-012>014-020>022-031>034-043>046-200800-
   NORTHWEST IOWA

CITY           SKY/WX    TMP DP  RH WIND       PRES   REMARKS
CARROLL *      MOCLDY    16   9  73 W6        30.13S WCI   7
CHEROKEE *     CLEAR     14  10  85 W7        30.12S WCI   4
DENISON *      PTCLDY    19  10  68 NW8       30.12F WCI   9
LE MARS *      CLEAR     14  10  85 W6        30.13F WCI   5
ORANGE CITY *  CLEAR     16   9  73 W12       30.09F WCI   3
SHELDON *      CLOUDY    12   7  79 W10       30.08S WCI  -1
SIOUX CITY     MOCLDY    20  11  68 W8        30.15F WCI  10
SPENCER        CLEAR     13   7  77 W15       30.07F WCI  -3
STORM LAKE *   CLEAR     12   7  79 W9        30.10F WCI   0
$$

IAZ055>058-069>071-079>083-090>094-200800-
   SOUTHWEST IOWA

CITY           SKY/WX    TMP DP  RH WIND       PRES   REMARKS
ATLANTIC *     CLOUDY    25  14  63 NW12      30.15S WCI  14
AUDUBON *      CLEAR     19   9  63 NW8       30.13S WCI   9
CLARINDA *     CLEAR     16  10  79 CALM      30.19S
COUNCIL BLFS * CLOUDY    23  14  68 NW9       30.15S WCI  13
CRESTON *      CLOUDY    23  16  74 NW13      30.14S WCI  11
HARLAN  *      CLOUDY    23  18  80 NW10      30.18S WCI  12
LAMONI         CLOUDY    24  16  71 NW10      30.15S WCI  14
RED OAK *      MOCLDY    18  14  86 W5        30.17S WCI  11
SHENANDOAH *   CLEAR     10   9  92 W5        30.19S WCI   2
$$

IAZ047>049-059>061-072>074-084-200800-
   CENTRAL IOWA

CITY           SKY/WX    TMP DP  RH WIND       PRES   REMARKS
AMES           MOCLDY    20  12  71 W10       30.11S WCI   9
ANKENY *       CLOUDY    23  14  68 W10       30.13F WCI  12
CHARITON *     CLOUDY    23  14  68 W9        30.13F WCI  13
DES MOINES     FLURRIES  25  14  63 NW15      30.13F WCI  13
GRINNELL*      CLOUDY    21  14  73 W10       30.09F WCI  10
KNOXVILLE *    CLOUDY    23  14  68 W12       30.11F WCI  12
MARSHALLTOWN   CLOUDY    21  13  71 W13       30.07F WCI   9
PELLA *        CLOUDY    23  16  74 W8        30.13F WCI  14
PERRY *          N/A     21  14  73 W12       30.13S WCI   9
$$

IAZ004>006-015-016-023>025-035-036-200800-
   NORTH CENTRAL IOWA

CITY           SKY/WX    TMP DP  RH WIND       PRES   REMARKS
ALGONA *       CLEAR     12   9  85 W13       30.07S WCI  -3
CLARION *      PTCLDY    14  10  85 W13       30.07S WCI   0
ESTHERVILLE    CLEAR     13   7  77 W14       30.05S WCI  -2
FORT DODGE *   CLEAR     18   9  68 W10       30.10S WCI   6
MASON CITY     CLEAR     13   8  81 W14       30.04S WCI  -2
FOREST CITY *  CLEAR     14  10  85 W7        30.04S WCI   4
IOWA FALLS *     N/A     18  12  79 W15       30.07S WCI   3
$$

IAZ007>011-017>019-026>030-037>042-050>054-066-200800-
   NORTHEAST IOWA

CITY           SKY/WX    TMP DP  RH WIND       PRES   REMARKS
CEDAR RAPIDS   PTCLDY    16  11  80 W14       30.06F WCI   2
CHARLES CITY * PTCLDY    14   9  79 W12       30.03S WCI   0
CLINTON *      CLEAR     18  10  73 W15       30.07F WCI   3
DECORAH *      MOCLDY    14   9  79 VRB5G12   29.97S WCI   6
DUBUQUE        CLEAR     15  10  80 W10       30.00F WCI   2
MONTICELLO *   CLEAR     18  10  73 W12       30.04F WCI   5
OELWEIN *      CLEAR     16   9  73 W14       30.03S WCI   1
WATERLOO       CLEAR     18  11  74 W10       30.05F WCI   6
$$

IAZ064-065-067-068-078-200800-
   EAST CENTRAL IOWA

CITY           SKY/WX    TMP DP  RH WIND       PRES   REMARKS
DAVENPORT      CLEAR     18  10  71 W16       30.07F WCI   3
IOWA CITY      CLEAR     16  11  80 W7        30.11F WCI   6
MT. PLEASANT * CLEAR     19  10  68 W8        30.13S WCI   9
MUSCATINE *    CLEAR     21  12  68 W12       30.12S WCI   9
QUAD CITIES    CLEAR     21  12  68 W15       30.08F WCI   8
$$

IAZ062-063-075>077-085>089-095>099-200800-
   SOUTHEAST IOWA

CITY           SKY/WX    TMP DP  RH WIND       PRES   REMARKS
BURLINGTON     CLEAR     19  11  70 SW7       30.13S WCI  10
FAIRFIELD *    MOCLDY    18   9  68 W8        30.13S WCI   7
FORT MADISON * CLEAR     21  12  68 W6        30.14S WCI  14
KEOKUK *       CLEAR     19  12  73 SW7       30.15S WCI  10
OSKALOOSA *    CLOUDY    21  14  73 W8        30.12F WCI  12
CENTERVILLE *  CLEAR     16  10  79 W7        30.16S WCI   6
OTTUMWA        CLOUDY    20  12  71 W6        30.13S WCI  12
WASHINGTON *   PTCLDY    19  14  79 W10       30.11F WCI   8
$$

ABBREVIATIONS USED IN REMARKS
   TC - TEMPERATURES IN CELSIUS
  WCI - WIND CHILL INDEX
   HX - HEAT INDEX
  VSB - VISIBILITY
$$




USA.gov is the U.S. government's official web portal to all federal, state and local government web resources and services.